Flag for U.S.A. Weather past 2 weeks in Everett, Washington, U.S.A.

Now
55 °F

More clouds than sun.


Feels Like: 54 °F
Forecast: 53 / 75 °F
Wind: 6 mph from North

Location: Snohomish County Airport

Current Time: Jul 22, 2014 at 7:59:25 AM

Latest Report: Jul 22, 2014 at 6:53 AM


Visibility: 10 mi

Pressure: 30.03 "Hg

Humidity: 83%

Dew point: 50 °F

Location of EverettLocation

Historic Weather in Everett — Graph

°F

Everett temperature yesterday

Maximum temperature yesterday: 71 °F (at 4:53 PM)
Minimum temperature yesterday: 54 °F (at 11:53 PM)
Average temperature yesterday: 62 °F

Past Weeks' High & Low Weather Summary

 TemperatureHumidityPressure
High84 °F (Jul 12, 3:53 PM)97% (Jul 9, 6:01 AM)30.15 "Hg (Jul 9, 6:01 AM)
Low53 °F (Jul 22, 3:53 AM)34% (Jul 11, 6:53 PM)29.90 "Hg (Jul 10, 5:53 PM)
Average65 °F69%30.03 "Hg
* Reported Jul 7 6:53 AM — Jul 22 6:53 AM, Everett, Weather by CustomWeather, © 2014

Note: Actual official high and low records may vary slightly from our data, if they occured in-between our weather recording intervals... More about our weather records

Advertising

Everett weather history for previous 24 hours

 ConditionsComfort  
Time TempWeatherWind HumidityBarometerVisibility
6:53 AM
Jul 22
55 °FMore clouds than sun.6 mph83%30.03 "Hg10 mi
5:53 AM54 °FMostly cloudy.3 mph90%30.03 "Hg10 mi
4:53 AM54 °FPassing clouds.5 mph90%30.02 "Hg10 mi
3:53 AM53 °FClear.No wind89%30.02 "Hg10 mi
2:53 AM56 °FClear.No wind84%30.01 "Hg10 mi
1:53 AM55 °FClear.5 mph80%30.02 "Hg10 mi
12:53 AM55 °FClear.No wind83%30.03 "Hg10 mi
11:53 PM
Jul 21
54 °FClear.6 mph86%30.02 "Hg10 mi
10:53 PM55 °FClear.6 mph87%30.01 "Hg10 mi
9:53 PM58 °FSunny.6 mph81%30.01 "Hg10 mi
8:53 PM61 °FSunny.6 mph70%29.99 "Hg10 mi
7:53 PM66 °FSunny.6 mph59%29.99 "Hg10 mi
6:53 PM71 °FSunny.7 mph41%29.98 "Hg10 mi
5:53 PM70 °FSunny.9 mph42%29.99 "Hg10 mi
4:53 PM71 °FSunny.12 mph38%29.99 "Hg10 mi
3:53 PM70 °FSunny.8 mph44%30.01 "Hg10 mi
2:53 PM69 °FSunny.8 mph47%30.03 "Hg10 mi
1:53 PM68 °FPassing clouds.6 mph53%30.03 "Hg10 mi
12:53 PM66 °FPassing clouds.9 mph59%30.04 "Hg10 mi
12:00 PM65 °FSunny.6 mph63%30.05 "Hg10 mi
10:53 AM62 °FPartly sunny.6 mph70%30.05 "Hg10 mi
9:53 AM59 °FPartly sunny.6 mph75%30.05 "Hg10 mi
8:53 AM61 °FScattered clouds.3 mph70%30.04 "Hg10 mi
8:01 AM59 °FMostly cloudy.5 mph75%30.05 "Hg10 mi
Weather by CustomWeather, © 2014

See weather overviewHow to use our weather pages